#timestamp,LO_Frequency,Hit 
1503928815.2,286046989.4,N
1503928835.1,286046988.7,N
1503928836.0,286046988.7,N
1503928855.8,286046989.3,N
1503928875.6,286046991.3,N
1503928895.5,286046992.2,N
1503928915.3,286046993.2,N
1503928935.1,286046990.6,N
1503928955.9,286046992.2,N
1503928975.7,286046992.6,N
1503928995.5,286046993.8,N
1503929015.4,286046995.5,N
1503929035.2,286046997.6,N
1503929055.0,286046998.2,N
1503929055.9,286046998.2,N
1503929075.8,286046998.2,N
1503929095.6,286047002.0,N
1503929115.4,286047001.6,N
1503929135.3,286047004.0,N
1503929155.1,286047007.3,N
1503929156.0,286047007.3,N
1503929175.8,286047006.7,N
1503929195.6,286047009.3,N
1503929215.5,286047011.7,N
1503929235.3,286047011.1,N
1503929255.1,286047009.7,N
1503929275.9,286047010.2,N
1503929295.7,286047012.0,N
1503929315.5,286047013.3,N
1503929335.4,286047013.3,N
1503929355.2,286047013.2,N
1503929375.0,286047016.7,N
1503929375.9,286047016.7,N
1503929395.8,286047017.5,N
1503929415.6,286047020.2,N
1503929435.4,286047017.6,N
1503929455.3,286047016.7,N
1503929475.1,286047012.9,N
1503929476.0,286047012.9,N
1503929495.8,286047016.0,N
1503929515.7,286047018.2,N
1503929535.5,286047016.9,N
1503929555.3,286047015.7,N
1503929575.1,286047017.0,N
1503929595.9,286047015.7,N
1503929615.7,286047018.8,P
1503929635.6,286047003.5,N
1503929655.4,286047003.1,N
1503929675.2,286047001.6,N
1503929695.0,286046998.3,N
1503929696.0,286046998.3,N
1503929715.8,286046997.2,N
1503929735.6,286047002.6,N
1503929755.4,286047005.6,N
1503929775.3,286047004.8,N
1503929795.1,286047005.9,N
1503929815.8,286047002.7,N
1503929835.7,286047002.8,N
1503929855.5,286047000.5,N
1503929875.3,286047000.4,N
1503929895.2,286046996.8,N
1503929915.9,286046993.8,N
1503929935.7,286046994.7,N
1503929955.6,286046996.0,N
1503929975.4,286046993.5,N
1503929995.2,286046995.7,N
1503930015.0,286046998.0,N
1503930016.0,286046998.0,N
1503930035.8,286046997.9,N
1503930055.6,286046996.5,N
1503930075.4,286047000.5,N
1503930095.3,286047000.2,N
1503930115.1,286047001.8,N
1503930135.8,286047000.7,N
1503930155.7,286046999.2,N
1503930175.5,286046993.8,N
1503930195.3,286046995.9,N
1503930215.2,286046995.6,N
1503930235.9,286046992.0,N
1503930255.7,286046992.1,N
1503930275.6,286046991.9,N
1503930295.4,286046991.8,N
1503930315.2,286046992.6,N
1503930335.1,286046991.5,N
1503930336.0,286046991.5,N
1503930355.2,286046987.8,P
1503930375.0,286046989.3,N
1503930375.9,286046989.3,N
1503930395.8,286046989.7,N
1503930415.6,286046983.7,P
1503930435.4,286046990.1,N
1503930455.3,286046991.6,N
1503930475.1,286046990.0,P
1503930495.9,286046997.9,P
1503930515.7,286046990.8,N
1503930535.5,286046991.3,N
1503930555.4,286046985.6,P
1503930575.2,286046994.8,N
1503930595.0,286046990.8,N
1503930595.9,286046990.8,N
1503930615.8,286046988.2,P
1503930635.6,286046995.2,P
1503930655.4,286046995.1,N
1503930675.3,286046995.2,N
1503930695.1,286046997.7,N
1503930696.0,286046997.7,N
1503930715.8,286046996.9,N
1503930735.7,286046995.5,N
1503930755.5,286046999.3,N
1503930775.3,286047001.9,N
1503930795.1,286047003.6,N
1503930815.9,286047005.4,N
1503930835.7,286047001.3,N
1503930855.5,286047003.9,N
1503930875.4,286047003.3,N
1503930895.2,286047002.1,N
1503930915.0,286047001.9,N
1503930915.9,286047001.9,N
1503930935.8,286047001.4,N
1503930955.6,286047003.3,N
1503930975.4,286047004.3,N
1503930995.3,286046999.9,N
1503931015.1,286047000.9,N
1503931016.0,286047000.9,N
1503931035.8,286046998.4,N
1503931055.7,286047001.0,N
1503931075.5,286046998.7,N
1503931095.3,286047000.8,N
1503931115.1,286047000.6,N
1503931135.9,286046998.6,N
1503931155.7,286047002.8,N
1503931175.5,286046998.4,N
1503931195.4,286046999.9,N
1503931215.2,286047000.0,N
1503931235.0,286046996.9,N
1503931235.9,286046996.9,N
1503931255.8,286046998.6,N
1503931275.6,286046997.9,N
1503931295.4,286046997.6,N
1503931315.3,286046995.4,N
1503931335.1,286046996.8,N
1503931336.0,286046996.8,N
1503931355.8,286046995.4,N
1503931375.7,286046998.8,N
1503931395.5,286047002.4,N
1503931415.3,286047000.4,N
1503931435.2,286047002.1,N
1503931455.9,286047001.5,N
1503931475.7,286046998.2,N
1503931495.5,286046999.9,N
1503931515.4,286047002.2,N
1503931535.2,286047001.8,N
1503931555.0,286046998.2,N
1503931555.9,286046998.2,N
1503931575.8,286047000.0,N
1503931595.6,286047003.2,N
1503931615.4,286047003.5,N
1503931635.3,286047007.3,P
1503931655.1,286047011.7,N
1503931675.8,286047012.0,N
1503931695.7,286047011.3,N
1503931715.5,286047015.2,P
1503931735.3,286047006.3,N
1503931755.2,286047008.5,N
1503931775.0,286047011.5,P
1503931775.9,286047011.5,P
1503931795.8,286047007.0,P
1503931815.6,286047008.5,P
1503931835.4,286047002.4,P
1503931855.3,286047003.6,N
1503931875.1,286047000.6,N
1503931876.0,286047000.6,N
1503931895.8,286046999.8,N
1503931915.7,286047000.2,N
1503931935.5,286047003.5,N
1503931955.3,286047005.4,N
1503931975.2,286047002.0,N
1503931995.9,286047005.3,N
1503932015.7,286047004.8,N
1503932035.5,286047005.2,N
1503932055.4,286047003.4,N
1503932075.2,286047003.1,N
1503932095.0,286047004.4,N
1503932095.9,286047004.4,N
1503932115.8,286047000.2,N
1503932135.6,286047001.6,N
1503932155.4,286047002.0,N
1503932175.3,286046999.7,N
1503932195.1,286047002.3,N
1503932196.0,286047002.3,N
1503932215.8,286047001.1,N
1503932235.7,286046999.9,N
1503932255.5,286047001.1,N
1503932275.3,286047000.8,N
1503932295.2,286046998.4,N
1503932315.9,286046996.5,N
1503932335.7,286046998.4,N
1503932355.5,286046997.9,N
1503932375.4,286046997.7,N
1503932395.2,286046997.0,N
